Reading, United Kingdom
Current Conditions -  °F | °C
As of 9:50 AM on Sunday 23 Nov 2014 (Local Time) from EGUB Reporting Station
Moderate Rain Moderate Rain  
Wind Chill:   Ceiling: 5000
Heat Index:   Visibility: 6mi
Dew Point:   Wind: 9mph
Humidity: 93%   Direction: 310°NW
Pressure: 30.03"   Gusts: NA
Location:  51.45°N, 0.99°W
Report Text: EGUB 230950Z 31008KT 9999 RA FEW008 BKN050 08/07 Q1017 BLU NOSIG
Loading
Personal Weather Stations






























Interactive Weather Map New forecast layout! Learn more

10-Day Weather Forecast

Advertisements
Track Severe Weather on mobile